TimeCDT,TemperatureF,Dew PointF,Humidity,Sea Level PressureIn,VisibilityMPH,Wind Direction,Wind SpeedMPH,Gust SpeedMPH,PrecipitationIn,Events,Conditions,WindDirDegrees,DateUTC
12:54 AM,81.0,70.0,69,29.86,10.0,SW,5.8,-,N/A,,Clear,220,2013-06-12 05:54:00
1:54 AM,80.1,68.0,67,29.85,10.0,SW,4.6,-,N/A,,Clear,220,2013-06-12 06:54:00
2:54 AM,75.9,68.0,76,29.85,10.0,Calm,Calm,-,N/A,,Clear,0,2013-06-12 07:54:00
3:54 AM,75.9,66.9,74,29.84,10.0,Calm,Calm,-,N/A,,Clear,0,2013-06-12 08:54:00
4:54 AM,71.1,66.0,84,29.86,10.0,Calm,Calm,-,N/A,,Clear,0,2013-06-12 09:54:00
5:54 AM,70.0,66.0,87,29.87,10.0,Calm,Calm,-,N/A,,Partly Cloudy,0,2013-06-12 10:54:00
6:54 AM,73.9,69.1,85,29.90,10.0,Calm,Calm,-,N/A,,Scattered Clouds,0,2013-06-12 11:54:00
7:54 AM,79.0,70.0,74,29.92,10.0,SSW,5.8,-,N/A,,Clear,200,2013-06-12 12:54:00
8:54 AM,80.1,71.1,74,29.91,10.0,SSW,6.9,-,N/A,,Mostly Cloudy,200,2013-06-12 13:54:00
9:54 AM,82.9,71.1,67,29.89,10.0,SW,9.2,-,N/A,,Partly Cloudy,230,2013-06-12 14:54:00
10:54 AM,87.1,72.0,61,29.86,10.0,SSW,11.5,23.0,N/A,,Scattered Clouds,210,2013-06-12 15:54:00
11:54 AM,90.0,72.0,55,29.84,10.0,SW,16.1,20.7,N/A,,Partly Cloudy,220,2013-06-12 16:54:00
12:54 PM,91.9,71.1,50,29.81,10.0,SSW,11.5,18.4,N/A,,Partly Cloudy,210,2013-06-12 17:54:00
1:54 PM,93.0,71.1,49,29.78,10.0,SW,12.7,20.7,N/A,,Scattered Clouds,220,2013-06-12 18:54:00
2:54 PM,93.9,71.1,47,29.76,10.0,SSW,16.1,26.5,N/A,,Partly Cloudy,210,2013-06-12 19:54:00
3:54 PM,93.9,72.0,49,29.74,10.0,SW,15.0,21.9,N/A,,Clear,220,2013-06-12 20:54:00
4:54 PM,93.9,70.0,46,29.73,10.0,SW,19.6,28.8,N/A,,Partly Cloudy,230,2013-06-12 21:54:00
5:54 PM,93.0,72.0,50,29.72,10.0,SW,8.1,18.4,N/A,,Scattered Clouds,230,2013-06-12 22:54:00
6:54 PM,91.0,70.0,50,29.72,10.0,WSW,11.5,-,N/A,,Scattered Clouds,240,2013-06-12 23:54:00
7:54 PM,90.0,69.1,50,29.71,10.0,WSW,16.1,23.0,N/A,,Mostly Cloudy,240,2013-06-13 00:54:00
8:54 PM,87.1,66.9,51,29.71,10.0,SW,12.7,19.6,N/A,,Clear,230,2013-06-13 01:54:00
9:54 PM,86.0,66.9,53,29.72,10.0,WSW,11.5,-,N/A,,Clear,240,2013-06-13 02:54:00
10:54 PM,84.9,68.0,57,29.72,10.0,WSW,11.5,-,N/A,,Clear,240,2013-06-13 03:54:00
11:54 PM,84.0,68.0,58,29.72,10.0,WSW,12.7,-,N/A,,Clear,240,2013-06-13 04:54:00